Date String (YYYY-MM-DD hh:mm:ss) UTC,Instrument flags,Ambient pressure (hPa),Sample flow (lpm),Bypass flow (lpm),Sample temperature (°C),Ambient temperature (°C),ASC tube jacket temperature (°C),LED temperature (°C),Box temperature (°C),Sample RH (%),Mass concentration (μg/m³),Mass concentration (μg/m³)
DateTimeUTC,F1_M11,P_M11,Q1_M11,Q2_M11,T1_M11,T2_M11,T3_M11,T4_M11,T5_M11,U1_M11,X0_M11,X2_M11
2021-08-19 01:00:00,,0822.5,5.01,0.00,29.0,28.1,00.0,37.9,30.9,23.7,0024.23,0015.37
2021-08-19 01:01:00,,0822.4,5.00,0.00,29.0,26.9,00.0,37.9,30.6,23.7,0024.41,0015.41
2021-08-19 01:02:00,,0822.4,4.99,0.00,28.8,25.5,00.0,37.9,30.2,23.6,0024.33,0015.50
2021-08-19 01:03:00,,0822.5,5.01,0.00,28.8,25.6,00.0,37.9,30.2,23.4,0024.19,0015.57
2021-08-19 01:04:00,,0822.4,5.01,0.00,28.7,26.0,00.0,37.8,30.3,23.7,0024.38,0015.68
2021-08-19 01:05:00,,0822.4,4.98,0.00,28.7,26.5,00.0,37.8,30.4,23.9,0024.23,0015.72
2021-08-19 01:06:00,,0822.3,5.01,0.00,28.8,26.9,00.0,37.8,30.6,23.7,0024.04,0015.73
2021-08-19 01:07:00,,0822.3,4.99,0.00,28.8,27.3,00.0,37.8,30.7,23.5,0023.61,0015.79
2021-08-19 01:08:00,,0822.4,5.00,0.00,28.9,27.6,00.0,37.8,30.8,23.3,0024.10,0015.87
2021-08-19 01:09:00,,0822.3,5.00,0.00,28.9,27.9,00.0,37.9,30.9,23.3,0024.16,0015.89
2021-08-19 01:10:00,,0822.4,5.02,0.00,29.0,28.1,00.0,37.9,31.0,23.4,0024.26,0015.94
2021-08-19 01:11:00,,0822.3,4.99,0.00,29.0,27.1,00.0,37.9,30.7,23.3,0025.22,0016.00
2021-08-19 01:12:00,,0822.2,5.01,0.00,28.9,25.6,00.0,37.9,30.2,23.7,0025.71,0016.09
2021-08-19 01:13:00,,0822.2,5.01,0.00,28.7,25.5,00.0,37.9,30.2,23.8,0025.55,0016.15
2021-08-19 01:14:00,,0822.2,5.00,0.00,28.7,25.9,00.0,37.8,30.3,23.9,0025.34,0016.21
2021-08-19 01:15:00,,0822.2,4.99,0.00,28.7,26.4,00.0,37.8,30.4,23.5,0025.59,0016.22
2021-08-19 01:16:00,,0822.2,5.01,0.00,28.7,26.8,00.0,37.8,30.5,23.6,0026.10,0016.27
2021-08-19 01:17:00,,0822.2,4.99,0.00,28.8,27.2,00.0,37.8,30.7,24.0,0025.63,0016.26
2021-08-19 01:18:00,,0822.3,5.02,0.00,28.9,27.6,00.0,37.8,30.8,24.0,0025.90,0016.33
2021-08-19 01:19:00,,0822.3,5.00,0.00,28.9,27.8,00.0,37.9,30.9,23.9,0026.57,0016.38
2021-08-19 01:20:00,,0822.3,5.00,0.00,29.0,28.1,00.0,37.9,31.0,23.5,0026.88,0016.47
2021-08-19 01:21:00,,0822.3,5.01,0.00,29.1,28.1,00.0,37.9,31.0,23.7,0027.36,0016.48
2021-08-19 01:22:00,,0822.2,5.02,0.00,29.0,26.6,00.0,37.9,30.5,23.8,0027.71,0016.49
2021-08-19 01:23:00,,0822.3,4.99,0.00,28.8,25.5,00.0,37.9,30.2,23.9,0028.63,0016.50
2021-08-19 01:24:00,,0822.3,5.01,0.00,28.8,25.7,00.0,37.9,30.3,24.0,0028.53,0016.48
2021-08-19 01:25:00,,0822.4,5.00,0.00,28.7,26.1,00.0,37.8,30.4,24.6,0028.86,0016.46
2021-08-19 01:26:00,,0822.4,5.01,0.00,28.7,26.5,00.0,37.8,30.5,24.9,0029.53,0016.44
2021-08-19 01:27:00,,0822.4,5.00,0.00,28.8,26.9,00.0,37.8,30.6,25.0,0029.43,0016.38
2021-08-19 01:28:00,,0822.4,4.99,0.00,28.8,27.3,00.0,37.8,30.7,24.9,0029.81,0016.40
2021-08-19 01:29:00,,0822.4,5.00,0.00,28.9,27.6,00.0,37.9,30.8,24.9,0029.68,0016.35
2021-08-19 01:30:00,,0822.5,4.99,0.00,29.0,27.9,00.0,37.9,30.9,25.1,0029.67,0016.27
2021-08-19 01:31:00,,0822.4,5.01,0.00,29.0,28.1,00.0,37.9,31.0,25.3,0030.62,0016.15
2021-08-19 01:32:00,,0822.4,5.00,0.00,29.1,28.3,00.0,37.9,31.1,25.4,0031.82,0016.05
2021-08-19 01:33:00,,0822.4,5.00,0.00,29.2,28.4,00.0,38.0,31.2,25.3,0032.45,0016.00
2021-08-19 01:34:00,,0822.4,5.00,0.00,29.2,27.2,00.0,38.0,30.8,25.0,0031.56,0015.87
2021-08-19 01:35:00,,0822.4,5.00,0.00,29.0,25.6,00.0,38.0,30.3,24.7,0031.18,0015.74
2021-08-19 01:36:00,,0822.4,5.00,0.00,28.9,25.6,00.0,38.0,30.3,24.0,0030.65,0015.62
2021-08-19 01:37:00,,0822.5,5.00,0.00,28.9,26.0,00.0,38.0,30.5,24.4,0029.49,0015.50
2021-08-19 01:38:00,,0822.4,5.00,0.00,28.9,26.5,00.0,37.9,30.6,24.6,0028.96,0015.40
2021-08-19 01:39:00,,0822.5,5.00,0.00,28.9,26.9,00.0,37.9,30.7,24.9,0028.66,0015.31
2021-08-19 01:40:00,,0822.6,4.99,0.00,28.9,27.3,00.0,37.9,30.8,25.1,0029.22,0015.28
2021-08-19 01:41:00,,0822.6,5.01,0.00,29.0,27.6,00.0,37.9,30.9,25.7,0028.42,0015.27
2021-08-19 01:42:00,,0822.6,5.00,0.00,29.1,27.9,00.0,38.0,31.0,25.6,0026.95,0015.28
2021-08-19 01:43:00,,0822.6,5.00,0.00,29.1,28.1,00.0,38.0,31.1,25.5,0025.20,0015.23
2021-08-19 01:44:00,,0822.6,5.00,0.00,29.2,28.3,00.0,38.0,31.2,25.4,0023.13,0015.14
2021-08-19 01:45:00,,0822.6,5.01,0.00,29.2,28.3,00.0,38.1,31.2,25.0,0022.37,0015.12
2021-08-19 01:46:00,,0822.5,5.00,0.00,29.2,26.7,00.0,38.1,30.6,25.3,0022.57,0015.11
2021-08-19 01:47:00,,0822.6,5.00,0.00,29.0,25.5,00.0,38.0,30.2,25.6,0022.63,0015.10
2021-08-19 01:48:00,,0822.6,5.01,0.00,28.9,25.7,00.0,38.0,30.4,25.6,0022.60,0015.04
2021-08-19 01:49:00,,0822.6,4.99,0.00,28.9,26.1,00.0,38.0,30.5,25.4,0022.50,0014.88
2021-08-19 01:50:00,,0822.6,5.00,0.00,28.9,26.6,00.0,38.0,30.6,25.3,0021.85,0014.69
2021-08-19 01:51:00,,0822.6,4.99,0.00,28.9,27.0,00.0,38.0,30.7,25.3,0020.78,0014.53
2021-08-19 01:52:00,,0822.6,5.00,0.00,28.9,27.3,00.0,38.0,30.8,25.3,0020.35,0014.37
2021-08-19 01:53:00,,0822.6,5.01,0.00,29.0,27.7,00.0,38.0,30.9,25.1,0020.10,0014.19
2021-08-19 01:54:00,,0822.6,4.99,0.00,29.1,27.9,00.0,38.0,31.0,24.9,0020.43,0014.12
2021-08-19 01:55:00,,0822.6,5.00,0.00,29.1,28.2,00.0,38.0,31.1,24.9,0020.97,0014.07
2021-08-19 01:56:00,,0822.6,5.00,0.00,29.2,28.4,00.0,38.1,31.2,24.9,0021.21,0014.05
2021-08-19 01:57:00,,0822.6,5.00,0.00,29.3,28.5,00.0,38.1,31.2,24.8,0020.83,0013.98
2021-08-19 01:58:00,,0822.6,5.00,0.00,29.3,27.3,00.0,38.1,30.9,24.9,0020.68,0013.90
2021-08-19 01:59:00,,0822.6,5.00,0.00,29.1,25.7,00.0,38.1,30.5,25.2,0020.73,0013.89
